Time,TemperatureF,DewpointF,PressureIn,WindDirection,WindDirectionDegrees,WindSpeedMPH,WindSpeedGustMPH,Humidity,HourlyPrecipIn,Conditions,Clouds,dailyrainin,SoftwareType,DateUTC
2013-06-03 00:04:00,59.7,54.9,30.03,NNE,28,0.0,0.0,84,0.00,,---,0.00,VWS V14.00,2013-06-03 05:04:00,
2013-06-03 00:10:00,59.6,54.8,30.03,NNE,28,0.0,0.0,84,0.00,,---,0.00,VWS V14.00,2013-06-03 05:10:00,
2013-06-03 00:15:00,59.4,54.6,30.03,NNE,29,0.0,0.0,84,0.00,,---,0.00,VWS V14.00,2013-06-03 05:15:00,
2013-06-03 00:21:00,59.3,54.8,30.03,NNE,28,0.0,0.0,85,0.00,,---,0.00,VWS V14.00,2013-06-03 05:21:00,
2013-06-03 00:26:00,59.1,54.6,30.03,NNE,28,0.0,0.0,85,0.00,,---,0.00,VWS V14.00,2013-06-03 05:26:00,
2013-06-03 00:32:00,59.0,54.5,30.04,NNE,29,0.0,0.0,85,0.00,,---,0.00,VWS V14.00,2013-06-03 05:32:00,
2013-06-03 00:37:00,58.9,54.4,30.04,NNE,29,0.0,0.0,85,0.00,,---,0.00,VWS V14.00,2013-06-03 05:37:00,
2013-06-03 00:42:00,58.8,54.3,30.03,NNE,29,0.0,0.0,85,0.00,,---,0.00,VWS V14.00,2013-06-03 05:42:00,
2013-06-03 00:47:00,58.7,54.5,30.03,NNE,29,0.0,0.0,86,0.00,,---,0.00,VWS V14.00,2013-06-03 05:47:00,
2013-06-03 00:52:00,58.5,54.3,30.03,NNE,29,0.0,0.0,86,0.00,,---,0.00,VWS V14.00,2013-06-03 05:52:00,
2013-06-03 00:57:00,58.4,54.2,30.04,NNE,27,0.0,0.0,86,0.00,,---,0.00,VWS V14.00,2013-06-03 05:57:00,
2013-06-03 01:02:00,58.4,54.2,30.04,NNE,27,0.0,0.0,86,0.00,,---,0.00,VWS V14.00,2013-06-03 06:02:00,
2013-06-03 01:07:00,58.3,54.1,30.04,NNE,27,0.0,0.0,86,0.00,,---,0.00,VWS V14.00,2013-06-03 06:07:00,
2013-06-03 01:13:00,58.3,54.5,30.03,NNE,27,0.0,0.0,87,0.00,,---,0.00,VWS V14.00,2013-06-03 06:13:00,
2013-06-03 01:18:00,58.2,54.4,30.03,NNE,27,0.0,0.0,87,0.00,,---,0.00,VWS V14.00,2013-06-03 06:18:00,
2013-06-03 01:23:00,58.2,54.4,30.03,NNE,27,0.0,0.0,87,0.00,,---,0.00,VWS V14.00,2013-06-03 06:23:00,
2013-06-03 01:28:00,58.2,54.4,30.03,NNE,27,0.0,0.0,87,0.00,,---,0.00,VWS V14.00,2013-06-03 06:28:00,
2013-06-03 01:34:00,58.1,54.3,30.03,NNE,27,0.0,0.0,87,0.00,,---,0.00,VWS V14.00,2013-06-03 06:34:00,
2013-06-03 01:39:00,58.0,54.2,30.03,NNE,27,0.0,0.0,87,0.00,,---,0.00,VWS V14.00,2013-06-03 06:39:00,
2013-06-03 01:44:00,57.9,54.1,30.03,NNE,27,0.0,0.0,87,0.00,,---,0.00,VWS V14.00,2013-06-03 06:44:00,
2013-06-03 01:49:00,57.8,54.0,30.03,NNE,27,0.0,0.0,87,0.00,,---,0.00,VWS V14.00,2013-06-03 06:49:00,
2013-06-03 01:54:00,57.7,53.9,30.03,NNE,27,0.0,0.0,87,0.00,,---,0.00,VWS V14.00,2013-06-03 06:54:00,
2013-06-03 01:59:00,57.6,53.8,30.02,NNE,27,0.0,0.0,87,0.00,,---,0.00,VWS V14.00,2013-06-03 06:59:00,
2013-06-03 02:04:00,57.6,54.1,30.02,NNE,27,0.0,0.0,88,0.00,,---,0.00,VWS V14.00,2013-06-03 07:04:00,
2013-06-03 02:09:00,57.5,54.0,30.02,NNE,27,0.0,0.0,88,0.00,,---,0.00,VWS V14.00,2013-06-03 07:09:00,
2013-06-03 02:14:00,57.4,53.9,30.03,NNE,27,0.0,0.0,88,0.00,,---,0.00,VWS V14.00,2013-06-03 07:14:00,
2013-06-03 02:20:00,57.3,53.8,30.03,NNE,27,0.0,0.0,88,0.00,,---,0.00,VWS V14.00,2013-06-03 07:20:00,
2013-06-03 02:25:00,57.2,53.7,30.03,NNE,27,0.0,0.0,88,0.00,,---,0.00,VWS V14.00,2013-06-03 07:25:00,
2013-06-03 02:31:00,57.0,53.8,30.02,NNE,27,0.0,0.0,89,0.00,,---,0.00,VWS V14.00,2013-06-03 07:31:00,
2013-06-03 02:36:00,56.9,53.7,30.02,NNE,27,0.0,0.0,89,0.00,,---,0.00,VWS V14.00,2013-06-03 07:36:00,
2013-06-03 02:42:00,56.8,53.6,30.02,NNE,27,0.0,0.0,89,0.00,,---,0.00,VWS V14.00,2013-06-03 07:42:00,
2013-06-03 02:47:00,56.7,53.5,30.02,NNE,27,0.0,0.0,89,0.00,,---,0.00,VWS V14.00,2013-06-03 07:47:00,
2013-06-03 02:52:00,56.5,53.3,30.02,NNE,27,0.0,0.0,89,0.00,,---,0.00,VWS V14.00,2013-06-03 07:52:00,
2013-06-03 02:57:00,56.4,53.5,30.02,NNE,27,0.0,0.0,90,0.00,,---,0.00,VWS V14.00,2013-06-03 07:57:00,
2013-06-03 03:02:00,56.3,53.4,30.02,NNE,27,0.0,0.0,90,0.00,,---,0.00,VWS V14.00,2013-06-03 08:02:00,
2013-06-03 03:07:00,56.2,53.3,30.02,NNE,27,0.0,0.0,90,0.00,,---,0.00,VWS V14.00,2013-06-03 08:07:00,
2013-06-03 03:12:00,56.1,53.5,30.02,NNE,27,0.0,0.0,91,0.00,,---,0.00,VWS V14.00,2013-06-03 08:12:00,
2013-06-03 03:17:00,56.1,53.5,30.02,NNE,30,0.0,0.0,91,0.00,,---,0.00,VWS V14.00,2013-06-03 08:17:00,
2013-06-03 03:22:00,56.2,53.6,30.02,NNE,30,0.0,0.0,91,0.00,,---,0.00,VWS V14.00,2013-06-03 08:22:00,
2013-06-03 03:27:00,56.2,53.6,30.03,NNE,30,0.0,0.0,91,0.00,,---,0.00,VWS V14.00,2013-06-03 08:27:00,
2013-06-03 03:32:00,56.2,53.6,30.03,NNE,30,0.0,0.0,91,0.00,,---,0.00,VWS V14.00,2013-06-03 08:32:00,
2013-06-03 03:37:00,56.0,53.4,30.03,NNE,30,0.0,0.0,91,0.00,,---,0.00,VWS V14.00,2013-06-03 08:37:00,
2013-06-03 03:42:00,55.9,53.3,30.03,NNE,30,0.0,0.0,91,0.00,,---,0.00,VWS V14.00,2013-06-03 08:42:00,
2013-06-03 03:47:00,55.8,53.2,30.03,NNE,30,0.0,0.0,91,0.00,,---,0.00,VWS V14.00,2013-06-03 08:47:00,
2013-06-03 03:52:00,55.7,53.4,30.03,NNE,30,0.0,0.0,92,0.00,,---,0.00,VWS V14.00,2013-06-03 08:52:00,
2013-06-03 03:57:00,55.6,53.3,30.03,NNE,30,0.0,0.0,92,0.00,,---,0.00,VWS V14.00,2013-06-03 08:57:00,
2013-06-03 04:02:00,55.7,53.4,30.03,NNE,30,0.0,0.0,92,0.00,,---,0.00,VWS V14.00,2013-06-03 09:02:00,
2013-06-03 04:08:00,55.7,53.7,30.03,NNE,30,0.0,0.0,93,0.00,,---,0.00,VWS V14.00,2013-06-03 09:08:00,
2013-06-03 04:13:00,55.7,53.7,30.02,NNE,31,0.0,0.0,93,0.00,,---,0.00,VWS V14.00,2013-06-03 09:13:00,
2013-06-03 04:19:00,55.7,53.7,30.02,NNE,32,0.0,0.0,93,0.00,,---,0.00,VWS V14.00,2013-06-03 09:19:00,
2013-06-03 04:25:00,55.6,53.6,30.02,NNE,32,0.0,0.0,93,0.00,,---,0.00,VWS V14.00,2013-06-03 09:25:00,
2013-06-03 04:30:00,55.5,53.5,30.02,NNE,32,0.0,0.0,93,0.00,,---,0.00,VWS V14.00,2013-06-03 09:30:00,
2013-06-03 04:36:00,55.5,53.5,30.02,NNE,33,0.0,0.0,93,0.00,,---,0.00,VWS V14.00,2013-06-03 09:36:00,
2013-06-03 04:41:00,55.5,53.5,30.02,NNE,33,0.0,0.0,93,0.00,,---,0.00,VWS V14.00,2013-06-03 09:41:00,
2013-06-03 04:47:00,55.4,53.4,30.02,NNE,33,0.0,0.0,93,0.00,,---,0.00,VWS V14.00,2013-06-03 09:47:00,
2013-06-03 04:53:00,55.3,53.3,30.02,NNE,33,0.0,0.0,93,0.00,,---,0.00,VWS V14.00,2013-06-03 09:53:00,
2013-06-03 04:58:00,55.2,53.2,30.02,NNE,33,0.0,0.0,93,0.00,,---,0.00,VWS V14.00,2013-06-03 09:58:00,
2013-06-03 05:03:00,55.1,53.1,30.02,NNE,33,0.0,0.0,93,0.00,,---,0.00,VWS V14.00,2013-06-03 10:03:00,
2013-06-03 05:08:00,55.2,53.2,30.02,NNE,33,0.0,0.0,93,0.00,,---,0.00,VWS V14.00,2013-06-03 10:08:00,
2013-06-03 05:14:00,55.1,53.1,30.02,NNE,33,0.0,0.0,93,0.00,,---,0.00,VWS V14.00,2013-06-03 10:14:00,
2013-06-03 05:19:00,55.0,53.0,30.02,NNE,33,0.0,0.0,93,0.00,,---,0.00,VWS V14.00,2013-06-03 10:19:00,
2013-06-03 05:25:00,54.9,52.9,30.02,NNE,33,0.0,0.0,93,0.00,,---,0.00,VWS V14.00,2013-06-03 10:25:00,
2013-06-03 05:30:00,54.7,53.0,30.02,NNE,33,0.0,0.0,94,0.00,,---,0.00,VWS V14.00,2013-06-03 10:30:00,
2013-06-03 05:35:00,54.7,52.7,30.02,NNE,33,0.0,0.0,93,0.00,,---,0.00,VWS V14.00,2013-06-03 10:35:00,
2013-06-03 05:40:00,54.6,52.9,30.02,NNE,33,0.0,0.0,94,0.00,,---,0.00,VWS V14.00,2013-06-03 10:40:00,
2013-06-03 05:45:00,54.6,52.9,30.02,NNE,33,0.0,0.0,94,0.00,,---,0.00,VWS V14.00,2013-06-03 10:45:00,
2013-06-03 05:50:00,54.7,53.0,30.02,NNE,33,0.0,0.0,94,0.00,,---,0.00,VWS V14.00,2013-06-03 10:50:00,
2013-06-03 05:57:00,54.6,52.9,30.02,NNE,33,0.0,0.0,94,0.00,,---,0.00,VWS V14.00,2013-06-03 10:57:00,
2013-06-03 06:02:00,54.6,52.9,30.02,NNE,33,0.0,0.0,94,0.00,,---,0.00,VWS V14.00,2013-06-03 11:02:00,
2013-06-03 06:07:00,54.6,52.9,30.02,NNE,33,0.0,0.0,94,0.00,,---,0.00,VWS V14.00,2013-06-03 11:07:00,
2013-06-03 06:12:00,54.6,52.9,30.02,NNE,33,0.0,0.0,94,0.00,,---,0.00,VWS V14.00,2013-06-03 11:12:00,
2013-06-03 06:17:00,54.6,52.9,30.02,NNE,33,0.0,0.0,94,0.00,,---,0.00,VWS V14.00,2013-06-03 11:17:00,
2013-06-03 06:22:00,54.6,52.9,30.02,NNE,33,0.0,0.0,94,0.00,,---,0.00,VWS V14.00,2013-06-03 11:22:00,
2013-06-03 06:27:00,54.6,52.9,30.02,NNE,33,0.0,0.0,94,0.00,,---,0.00,VWS V14.00,2013-06-03 11:27:00,
2013-06-03 06:32:00,54.6,52.9,30.02,NNE,33,0.0,0.0,94,0.00,,---,0.00,VWS V14.00,2013-06-03 11:32:00,
2013-06-03 06:37:00,54.6,52.9,30.02,NNE,33,0.0,0.0,94,0.00,,---,0.00,VWS V14.00,2013-06-03 11:37:00,
2013-06-03 06:42:00,54.6,52.9,30.02,NNE,33,0.0,0.0,94,0.00,,---,0.00,VWS V14.00,2013-06-03 11:42:00,
2013-06-03 06:47:00,54.6,52.9,30.02,NNE,33,0.0,0.0,94,0.00,,---,0.00,VWS V14.00,2013-06-03 11:47:00,
2013-06-03 06:52:00,54.6,52.9,30.02,NNE,33,0.0,0.0,94,0.00,,---,0.00,VWS V14.00,2013-06-03 11:52:00,
2013-06-03 06:57:00,54.6,52.9,30.02,NNE,33,0.0,0.0,94,0.00,,---,0.00,VWS V14.00,2013-06-03 11:57:00,
2013-06-03 07:02:00,54.6,52.9,30.02,NNE,33,0.0,0.0,94,0.00,,---,0.00,VWS V14.00,2013-06-03 12:02:00,
2013-06-03 07:07:00,54.6,52.9,30.02,NNE,33,0.0,0.0,94,0.00,,---,0.00,VWS V14.00,2013-06-03 12:07:00,
2013-06-03 07:12:00,54.6,52.9,30.03,NNE,33,0.0,0.0,94,0.00,,---,0.00,VWS V14.00,2013-06-03 12:12:00,
2013-06-03 07:17:00,54.6,52.9,30.03,NNE,33,0.0,0.0,94,0.00,,---,0.00,VWS V14.00,2013-06-03 12:17:00,
2013-06-03 07:22:00,54.6,52.9,30.03,NNE,33,0.0,0.0,94,0.00,,---,0.00,VWS V14.00,2013-06-03 12:22:00,
2013-06-03 07:27:00,57.4,55.7,30.02,NE,42,3.0,3.0,94,0.00,,---,0.00,VWS V14.00,2013-06-03 12:27:00,
2013-06-03 07:32:00,58.0,56.0,30.02,NE,52,0.0,0.0,93,0.00,,---,0.00,VWS V14.00,2013-06-03 12:32:00,
2013-06-03 07:38:00,58.5,56.2,30.02,NE,55,0.0,0.0,92,0.00,,---,0.00,VWS V14.00,2013-06-03 12:38:00,
2013-06-03 07:43:00,59.0,56.4,30.01,NE,55,0.0,0.0,91,0.00,,---,0.00,VWS V14.00,2013-06-03 12:43:00,
2013-06-03 07:48:00,59.5,56.9,30.01,NE,56,1.0,2.0,91,0.00,,---,0.00,VWS V14.00,2013-06-03 12:48:00,
2013-06-03 07:53:00,59.8,56.9,30.01,East,96,0.0,6.0,90,0.00,,---,0.00,VWS V14.00,2013-06-03 12:53:00,
2013-06-03 07:58:00,60.0,56.8,30.01,ENE,72,0.0,3.0,89,0.00,,---,0.00,VWS V14.00,2013-06-03 12:58:00,
2013-06-03 08:03:00,60.1,56.8,30.01,ENE,76,0.0,0.0,89,0.00,,---,0.00,VWS V14.00,2013-06-03 13:03:00,
2013-06-03 08:08:00,60.2,57.0,30.01,ESE,119,0.0,0.0,89,0.00,,---,0.00,VWS V14.00,2013-06-03 13:08:00,
2013-06-03 08:13:00,60.6,57.3,30.01,ESE,116,0.0,0.0,89,0.00,,---,0.00,VWS V14.00,2013-06-03 13:13:00,
2013-06-03 08:18:00,61.0,57.4,30.01,ESE,107,0.0,0.0,88,0.00,,---,0.00,VWS V14.00,2013-06-03 13:18:00,
2013-06-03 08:23:00,61.4,57.8,30.01,ESE,109,0.0,0.0,88,0.00,,---,0.00,VWS V14.00,2013-06-03 13:23:00,
2013-06-03 08:29:00,61.8,57.6,30.01,ESE,110,0.0,4.0,86,0.00,,---,0.00,VWS V14.00,2013-06-03 13:29:00,
2013-06-03 08:34:00,62.0,58.1,30.01,SE,146,0.0,0.0,87,0.00,,---,0.00,VWS V14.00,2013-06-03 13:34:00,
2013-06-03 08:39:00,62.6,58.0,30.01,SE,129,0.0,0.0,85,0.00,,---,0.00,VWS V14.00,2013-06-03 13:39:00,
2013-06-03 08:44:00,62.9,58.3,30.02,SE,145,0.0,4.0,85,0.00,,---,0.00,VWS V14.00,2013-06-03 13:44:00,
2013-06-03 08:50:00,63.4,58.2,30.02,ESE,115,0.0,3.0,83,0.00,,---,0.00,VWS V14.00,2013-06-03 13:50:00,
2013-06-03 08:56:00,63.7,58.8,30.02,ESE,117,1.0,4.0,84,0.00,,---,0.00,VWS V14.00,2013-06-03 13:56:00,
2013-06-03 09:01:00,63.6,58.7,30.01,ESE,123,0.0,0.0,84,0.00,,---,0.00,VWS V14.00,2013-06-03 14:01:00,
2013-06-03 09:06:00,63.4,58.2,30.01,SSW,192,0.0,0.0,83,0.00,,---,0.00,VWS V14.00,2013-06-03 14:06:00,
2013-06-03 09:11:00,63.5,58.2,30.01,SE,130,5.0,5.0,83,0.00,,---,0.00,VWS V14.00,2013-06-03 14:11:00,
2013-06-03 09:16:00,63.7,58.5,30.02,SE,126,0.0,0.0,83,0.00,,---,0.00,VWS V14.00,2013-06-03 14:16:00,
2013-06-03 09:22:00,64.9,59.3,30.02,ESE,115,0.0,4.0,82,0.00,,---,0.00,VWS V14.00,2013-06-03 14:22:00,
2013-06-03 09:27:00,65.3,59.3,30.02,SSE,168,0.0,4.0,81,0.00,,---,0.00,VWS V14.00,2013-06-03 14:27:00,
2013-06-03 09:32:00,65.3,59.0,30.02,ESE,120,4.0,7.0,80,0.00,,---,0.00,VWS V14.00,2013-06-03 14:32:00,
2013-06-03 09:37:00,65.3,59.3,30.02,South,169,0.0,1.0,81,0.00,,---,0.00,VWS V14.00,2013-06-03 14:37:00,
2013-06-03 09:42:00,65.7,59.7,30.01,East,84,0.0,0.0,81,0.00,,---,0.00,VWS V14.00,2013-06-03 14:42:00,
2013-06-03 09:47:00,66.3,59.2,30.01,SE,124,0.0,0.0,78,0.00,,---,0.00,VWS V14.00,2013-06-03 14:47:00,
2013-06-03 09:52:00,66.3,60.0,30.01,SSE,160,0.0,0.0,80,0.00,,---,0.00,VWS V14.00,2013-06-03 14:52:00,
2013-06-03 09:58:00,66.8,59.7,30.01,SSE,158,0.0,0.0,78,0.00,,---,0.00,VWS V14.00,2013-06-03 14:58:00,
2013-06-03 10:03:00,66.5,59.4,30.01,South,186,0.0,3.0,78,0.00,,---,0.00,VWS V14.00,2013-06-03 15:03:00,
2013-06-03 10:09:00,66.7,60.0,30.01,SSE,165,0.0,0.0,79,0.00,,---,0.00,VWS V14.00,2013-06-03 15:09:00,
2013-06-03 10:14:00,67.5,60.4,30.01,ESE,115,0.0,0.0,78,0.00,,---,0.00,VWS V14.00,2013-06-03 15:14:00,
2013-06-03 10:19:00,68.2,60.7,30.01,ESE,111,0.0,0.0,77,0.00,,---,0.00,VWS V14.00,2013-06-03 15:19:00,
2013-06-03 10:25:00,68.5,60.3,30.01,South,186,0.0,0.0,75,0.00,,---,0.00,VWS V14.00,2013-06-03 15:25:00,
2013-06-03 10:30:00,69.3,61.0,30.00,ENE,72,0.0,0.0,75,0.00,,---,0.00,VWS V14.00,2013-06-03 15:30:00,
2013-06-03 10:35:00,70.1,61.0,30.00,ENE,69,0.0,2.0,73,0.00,,---,0.00,VWS V14.00,2013-06-03 15:35:00,
2013-06-03 10:40:00,70.7,61.2,30.00,ENE,70,0.0,0.0,72,0.00,,---,0.00,VWS V14.00,2013-06-03 15:40:00,
2013-06-03 10:45:00,71.1,60.8,30.00,East,79,0.0,0.0,70,0.00,,---,0.00,VWS V14.00,2013-06-03 15:45:00,
2013-06-03 10:50:00,70.6,60.3,30.00,ESE,103,0.0,2.0,70,0.00,,---,0.00,VWS V14.00,2013-06-03 15:50:00,
2013-06-03 10:56:00,70.3,60.5,30.00,South,177,0.0,0.0,71,0.00,,---,0.00,VWS V14.00,2013-06-03 15:56:00,
2013-06-03 11:01:00,70.4,60.6,30.00,South,190,0.0,0.0,71,0.00,,---,0.00,VWS V14.00,2013-06-03 16:01:00,
2013-06-03 11:07:00,70.9,61.0,30.00,East,80,0.0,0.0,71,0.00,,---,0.00,VWS V14.00,2013-06-03 16:07:00,
2013-06-03 11:11:00,71.3,61.0,30.00,ESE,120,0.0,0.0,70,0.00,,---,0.00,VWS V14.00,2013-06-03 16:11:00,
2013-06-03 11:17:00,71.5,61.2,30.00,ESE,110,0.0,0.0,70,0.00,,---,0.00,VWS V14.00,2013-06-03 16:17:00,
2013-06-03 11:22:00,71.5,60.8,30.00,SE,124,0.0,0.0,69,0.00,,---,0.00,VWS V14.00,2013-06-03 16:22:00,
2013-06-03 11:27:00,71.2,61.3,30.00,SE,137,0.0,5.0,71,0.00,,---,0.00,VWS V14.00,2013-06-03 16:27:00,
2013-06-03 11:32:00,71.9,62.0,30.00,SE,136,1.0,1.0,71,0.00,,---,0.00,VWS V14.00,2013-06-03 16:32:00,
2013-06-03 11:37:00,72.1,61.8,30.00,SSW,205,0.0,2.0,70,0.00,,---,0.00,VWS V14.00,2013-06-03 16:37:00,
2013-06-03 11:42:00,72.6,61.9,30.00,South,175,0.0,0.0,69,0.00,,---,0.00,VWS V14.00,2013-06-03 16:42:00,
2013-06-03 11:47:00,72.7,62.0,30.00,SSE,165,0.0,0.0,69,0.00,,---,0.00,VWS V14.00,2013-06-03 16:47:00,
2013-06-03 11:52:00,73.9,62.7,30.00,SSE,148,0.0,0.0,68,0.00,,---,0.00,VWS V14.00,2013-06-03 16:52:00,
2013-06-03 11:57:00,74.6,62.5,30.00,SE,124,0.0,0.0,66,0.00,,---,0.00,VWS V14.00,2013-06-03 16:57:00,
2013-06-03 12:02:00,73.0,62.2,30.00,SE,126,0.0,9.0,69,0.00,,---,0.00,VWS V14.00,2013-06-03 17:02:00,
2013-06-03 12:08:00,74.0,63.6,30.00,ENE,76,0.0,0.0,70,0.00,,---,0.00,VWS V14.00,2013-06-03 17:08:00,
2013-06-03 12:13:00,74.3,61.8,30.00,South,191,0.0,0.0,65,0.00,,---,0.00,VWS V14.00,2013-06-03 17:13:00,
2013-06-03 12:19:00,74.0,61.5,30.00,South,187,0.0,5.0,65,0.00,,---,0.00,VWS V14.00,2013-06-03 17:19:00,
2013-06-03 12:24:00,73.7,61.7,30.00,SSE,147,0.0,6.0,66,0.00,,---,0.00,VWS V14.00,2013-06-03 17:24:00,
2013-06-03 12:29:00,73.7,62.1,29.99,SSW,213,0.0,0.0,67,0.00,,---,0.00,VWS V14.00,2013-06-03 17:29:00,
2013-06-03 12:35:00,74.1,62.5,29.99,SSW,193,3.0,4.0,67,0.00,,---,0.00,VWS V14.00,2013-06-03 17:35:00,
2013-06-03 12:40:00,74.0,62.4,29.99,SE,135,0.0,2.0,67,0.00,,---,0.00,VWS V14.00,2013-06-03 17:40:00,
2013-06-03 12:45:00,75.6,61.2,29.98,South,190,0.0,4.0,61,0.00,,---,0.00,VWS V14.00,2013-06-03 17:45:00,
2013-06-03 12:50:00,74.5,61.5,29.98,South,176,0.0,0.0,64,0.00,,---,0.00,VWS V14.00,2013-06-03 17:50:00,
2013-06-03 12:56:00,75.1,62.5,29.98,South,179,0.0,0.0,65,0.00,,---,0.00,VWS V14.00,2013-06-03 17:56:00,
2013-06-03 13:01:00,75.9,63.3,29.97,SSW,207,0.0,0.0,65,0.00,,---,0.00,VWS V14.00,2013-06-03 18:01:00,
2013-06-03 13:06:00,76.0,62.0,29.97,SSW,201,0.0,6.0,62,0.00,,---,0.00,VWS V14.00,2013-06-03 18:06:00,
2013-06-03 13:11:00,77.1,63.1,29.97,ESE,117,0.0,4.0,62,0.00,,---,0.00,VWS V14.00,2013-06-03 18:11:00,
2013-06-03 13:17:00,76.7,62.2,29.97,South,181,0.0,6.0,61,0.00,,---,0.00,VWS V14.00,2013-06-03 18:17:00,
2013-06-03 13:22:00,75.7,62.7,29.97,ESE,109,1.0,1.0,64,0.00,,---,0.00,VWS V14.00,2013-06-03 18:22:00,
2013-06-03 13:27:00,76.4,62.0,29.97,ESE,119,1.0,4.0,61,0.00,,---,0.00,VWS V14.00,2013-06-03 18:27:00,
2013-06-03 13:32:00,76.4,62.0,29.97,SW,215,0.0,0.0,61,0.00,,---,0.00,VWS V14.00,2013-06-03 18:32:00,
2013-06-03 13:37:00,76.5,61.1,29.97,SW,222,0.0,2.0,59,0.00,,---,0.00,VWS V14.00,2013-06-03 18:37:00,
2013-06-03 13:42:00,76.0,60.2,29.97,South,187,0.0,1.0,58,0.00,,---,0.00,VWS V14.00,2013-06-03 18:42:00,
2013-06-03 13:47:00,76.7,62.2,29.97,SSW,198,0.0,0.0,61,0.00,,---,0.00,VWS V14.00,2013-06-03 18:47:00,
2013-06-03 13:53:00,77.2,62.7,29.97,South,176,0.0,0.0,61,0.00,,---,0.00,VWS V14.00,2013-06-03 18:53:00,
2013-06-03 13:58:00,77.2,62.7,29.96,SE,127,0.0,4.0,61,0.00,,---,0.00,VWS V14.00,2013-06-03 18:58:00,
2013-06-03 14:03:00,77.6,61.7,29.96,SE,126,0.0,5.0,58,0.00,,---,0.00,VWS V14.00,2013-06-03 19:03:00,
2013-06-03 14:09:00,77.1,61.7,29.96,South,191,0.0,3.0,59,0.00,,---,0.00,VWS V14.00,2013-06-03 19:09:00,
2013-06-03 14:14:00,76.6,62.2,29.95,South,178,1.0,9.0,61,0.00,,---,0.00,VWS V14.00,2013-06-03 19:14:00,
2013-06-03 14:19:00,77.4,62.4,29.95,ESE,112,0.0,3.0,60,0.00,,---,0.00,VWS V14.00,2013-06-03 19:19:00,
2013-06-03 14:24:00,77.1,62.6,29.95,South,176,0.0,4.0,61,0.00,,---,0.00,VWS V14.00,2013-06-03 19:24:00,
2013-06-03 14:29:00,77.6,63.1,29.95,South,175,0.0,0.0,61,0.00,,---,0.00,VWS V14.00,2013-06-03 19:29:00,
2013-06-03 14:34:00,77.9,62.4,29.95,SSE,167,0.0,8.0,59,0.00,,---,0.00,VWS V14.00,2013-06-03 19:34:00,
2013-06-03 14:39:00,77.9,62.9,29.95,South,169,0.0,0.0,60,0.00,,---,0.00,VWS V14.00,2013-06-03 19:39:00,
2013-06-03 14:45:00,78.8,62.3,29.94,ESE,118,0.0,0.0,57,0.00,,---,0.00,VWS V14.00,2013-06-03 19:45:00,
2013-06-03 14:51:00,78.7,62.2,29.94,SSE,150,0.0,6.0,57,0.00,,---,0.00,VWS V14.00,2013-06-03 19:51:00,
2013-06-03 14:56:00,78.5,63.0,29.94,SE,143,0.0,2.0,59,0.00,,---,0.00,VWS V14.00,2013-06-03 19:56:00,
2013-06-03 15:01:00,79.9,62.8,29.94,East,95,0.0,0.0,56,0.00,,---,0.00,VWS V14.00,2013-06-03 20:01:00,
2013-06-03 15:06:00,79.2,62.7,29.94,SSW,198,0.0,9.0,57,0.00,,---,0.00,VWS V14.00,2013-06-03 20:06:00,
2013-06-03 15:11:00,78.4,62.9,29.94,ESE,108,4.0,6.0,59,0.00,,---,0.00,VWS V14.00,2013-06-03 20:11:00,
2013-06-03 15:16:00,79.1,64.0,29.93,SSW,198,9.0,9.0,60,0.00,,---,0.00,VWS V14.00,2013-06-03 20:16:00,
2013-06-03 15:22:00,78.4,63.4,29.93,South,178,1.0,1.0,60,0.00,,---,0.00,VWS V14.00,2013-06-03 20:22:00,
2013-06-03 15:27:00,78.8,62.8,29.93,SSE,159,0.0,2.0,58,0.00,,---,0.00,VWS V14.00,2013-06-03 20:27:00,
2013-06-03 15:33:00,80.6,63.0,29.93,SSW,199,0.0,6.0,55,0.00,,---,0.00,VWS V14.00,2013-06-03 20:33:00,
2013-06-03 15:38:00,80.4,61.7,29.93,South,188,0.0,7.0,53,0.00,,---,0.00,VWS V14.00,2013-06-03 20:38:00,
2013-06-03 15:43:00,79.9,61.8,29.93,South,187,1.0,5.0,54,0.00,,---,0.00,VWS V14.00,2013-06-03 20:43:00,
2013-06-03 15:48:00,79.6,62.5,29.93,ESE,115,0.0,3.0,56,0.00,,---,0.00,VWS V14.00,2013-06-03 20:48:00,
2013-06-03 15:53:00,79.6,61.5,29.93,ESE,121,5.0,10.0,54,0.00,,---,0.00,VWS V14.00,2013-06-03 20:53:00,
2013-06-03 15:58:00,79.5,63.4,29.92,SSW,197,4.0,6.0,58,0.00,,---,0.00,VWS V14.00,2013-06-03 20:58:00,
2013-06-03 16:03:00,79.9,62.8,29.92,ESE,120,0.0,0.0,56,0.00,,---,0.00,VWS V14.00,2013-06-03 21:03:00,
2013-06-03 16:08:00,80.3,63.7,29.92,ESE,110,13.0,13.0,57,0.00,,---,0.00,VWS V14.00,2013-06-03 21:08:00,
2013-06-03 16:13:00,79.8,63.2,29.91,South,186,0.0,0.0,57,0.00,,---,0.00,VWS V14.00,2013-06-03 21:13:00,
2013-06-03 16:18:00,80.0,62.9,29.91,ESE,122,0.0,0.0,56,0.00,,---,0.00,VWS V14.00,2013-06-03 21:18:00,
2013-06-03 16:23:00,80.6,63.0,29.91,ESE,116,0.0,10.0,55,0.00,,---,0.00,VWS V14.00,2013-06-03 21:23:00,
2013-06-03 16:28:00,80.3,62.7,29.91,SSE,151,0.0,9.0,55,0.00,,---,0.00,VWS V14.00,2013-06-03 21:28:00,
2013-06-03 16:33:00,80.4,62.2,29.91,SSE,163,0.0,1.0,54,0.00,,---,0.00,VWS V14.00,2013-06-03 21:33:00,
2013-06-03 16:38:00,80.2,62.1,29.91,ESE,117,2.0,6.0,54,0.00,,---,0.00,VWS V14.00,2013-06-03 21:38:00,
2013-06-03 16:43:00,80.4,63.3,29.91,SE,131,0.0,7.0,56,0.00,,---,0.00,VWS V14.00,2013-06-03 21:43:00,
2013-06-03 16:49:00,80.5,62.9,29.91,SSW,193,0.0,11.0,55,0.00,,---,0.00,VWS V14.00,2013-06-03 21:49:00,
2013-06-03 16:54:00,80.7,62.0,29.91,SE,139,0.0,1.0,53,0.00,,---,0.00,VWS V14.00,2013-06-03 21:54:00,
2013-06-03 16:59:00,81.0,62.3,29.90,East,101,0.0,0.0,53,0.00,,---,0.00,VWS V14.00,2013-06-03 21:59:00,
2013-06-03 17:05:00,80.7,62.0,29.90,East,99,2.0,2.0,53,0.00,,---,0.00,VWS V14.00,2013-06-03 22:05:00,
2013-06-03 17:10:00,80.4,62.2,29.90,SSW,197,0.0,0.0,54,0.00,,---,0.00,VWS V14.00,2013-06-03 22:10:00,
2013-06-03 17:15:00,80.1,62.5,29.90,ESE,123,5.0,11.0,55,0.00,,---,0.00,VWS V14.00,2013-06-03 22:15:00,
2013-06-03 17:20:00,79.8,63.2,29.90,South,169,0.0,4.0,57,0.00,,---,0.00,VWS V14.00,2013-06-03 22:20:00,
2013-06-03 17:25:00,79.6,63.0,29.90,ESE,122,0.0,0.0,57,0.00,,---,0.00,VWS V14.00,2013-06-03 22:25:00,
2013-06-03 17:30:00,80.5,63.4,29.89,SE,129,0.0,0.0,56,0.00,,---,0.00,VWS V14.00,2013-06-03 22:30:00,
2013-06-03 17:35:00,80.1,63.0,29.89,ESE,102,3.0,7.0,56,0.00,,---,0.00,VWS V14.00,2013-06-03 22:35:00,
2013-06-03 17:40:00,79.7,62.6,29.89,SE,130,3.0,9.0,56,0.00,,---,0.00,VWS V14.00,2013-06-03 22:40:00,
2013-06-03 17:45:00,79.9,62.3,29.89,SSW,200,0.0,7.0,55,0.00,,---,0.00,VWS V14.00,2013-06-03 22:45:00,
2013-06-03 17:50:00,80.4,62.8,29.89,SE,124,0.0,5.0,55,0.00,,---,0.00,VWS V14.00,2013-06-03 22:50:00,
2013-06-03 17:56:00,81.0,62.8,29.89,ESE,115,7.0,10.0,54,0.00,,---,0.00,VWS V14.00,2013-06-03 22:56:00,
2013-06-03 18:02:00,80.6,62.4,29.88,ESE,117,0.0,5.0,54,0.00,,---,0.00,VWS V14.00,2013-06-03 23:02:00,
2013-06-03 18:07:00,80.3,61.6,29.88,South,171,0.0,13.0,53,0.00,,---,0.00,VWS V14.00,2013-06-03 23:07:00,
2013-06-03 18:12:00,80.4,62.8,29.87,SSW,193,0.0,0.0,55,0.00,,---,0.00,VWS V14.00,2013-06-03 23:12:00,
2013-06-03 18:17:00,80.5,63.4,29.87,SE,131,0.0,1.0,56,0.00,,---,0.00,VWS V14.00,2013-06-03 23:17:00,
2013-06-03 18:22:00,80.5,62.9,29.87,South,181,0.0,3.0,55,0.00,,---,0.00,VWS V14.00,2013-06-03 23:22:00,
2013-06-03 18:27:00,80.5,62.3,29.87,SE,131,6.0,7.0,54,0.00,,---,0.00,VWS V14.00,2013-06-03 23:27:00,
2013-06-03 18:32:00,80.2,62.6,29.87,SSW,208,0.0,11.0,55,0.00,,---,0.00,VWS V14.00,2013-06-03 23:32:00,
2013-06-03 18:37:00,79.9,62.3,29.87,SE,127,0.0,0.0,55,0.00,,---,0.00,VWS V14.00,2013-06-03 23:37:00,
2013-06-03 18:43:00,80.1,62.5,29.87,SE,144,0.0,4.0,55,0.00,,---,0.00,VWS V14.00,2013-06-03 23:43:00,
2013-06-03 18:48:00,80.4,62.2,29.87,ESE,123,1.0,9.0,54,0.00,,---,0.00,VWS V14.00,2013-06-03 23:48:00,
2013-06-03 18:53:00,79.9,61.8,29.87,ESE,116,10.0,17.0,54,0.00,,---,0.00,VWS V14.00,2013-06-03 23:53:00,
2013-06-03 19:00:00,79.5,61.9,29.87,SE,129,3.0,11.0,55,0.00,,---,0.00,VWS V14.00,2013-06-04 00:00:00,
2013-06-03 19:06:00,79.5,63.0,29.87,SE,124,0.0,1.0,57,0.00,,---,0.00,VWS V14.00,2013-06-04 00:06:00,
2013-06-03 19:11:00,79.6,63.0,29.87,South,169,0.0,5.0,57,0.00,,---,0.00,VWS V14.00,2013-06-04 00:11:00,
2013-06-03 19:17:00,79.4,63.3,29.87,SW,236,1.0,2.0,58,0.00,,---,0.00,VWS V14.00,2013-06-04 00:17:00,
2013-06-03 19:22:00,79.4,63.8,29.87,SE,140,0.0,4.0,59,0.00,,---,0.00,VWS V14.00,2013-06-04 00:22:00,
2013-06-03 19:27:00,79.3,64.7,29.87,SSE,148,0.0,0.0,61,0.00,,---,0.00,VWS V14.00,2013-06-04 00:27:00,
2013-06-03 19:33:00,79.0,64.9,29.87,SE,134,0.0,0.0,62,0.00,,---,0.00,VWS V14.00,2013-06-04 00:33:00,
2013-06-03 19:38:00,78.9,64.8,29.87,SSE,150,3.0,7.0,62,0.00,,---,0.00,VWS V14.00,2013-06-04 00:38:00,
2013-06-03 19:43:00,78.8,64.7,29.87,SE,139,0.0,3.0,62,0.00,,---,0.00,VWS V14.00,2013-06-04 00:43:00,
2013-06-03 19:49:00,78.7,64.6,29.87,ESE,122,0.0,1.0,62,0.00,,---,0.00,VWS V14.00,2013-06-04 00:49:00,
2013-06-03 19:54:00,78.4,66.1,29.87,East,82,4.0,4.0,66,0.00,,---,0.00,VWS V14.00,2013-06-04 00:54:00,
2013-06-03 19:59:00,77.8,66.0,29.87,SE,140,0.0,6.0,67,0.00,,---,0.00,VWS V14.00,2013-06-04 00:59:00,
2013-06-03 20:04:00,77.5,66.1,29.87,East,79,0.0,0.0,68,0.00,,---,0.00,VWS V14.00,2013-06-04 01:04:00,
2013-06-03 20:09:00,77.1,65.7,29.87,East,99,0.0,1.0,68,0.00,,---,0.00,VWS V14.00,2013-06-04 01:09:00,
2013-06-03 20:14:00,76.8,65.9,29.86,SE,137,0.0,0.0,69,0.00,,---,0.00,VWS V14.00,2013-06-04 01:14:00,
2013-06-03 20:19:00,76.6,66.1,29.86,SE,146,0.0,3.0,70,0.00,,---,0.00,VWS V14.00,2013-06-04 01:19:00,
2013-06-03 20:24:00,76.4,65.9,29.86,ESE,120,0.0,0.0,70,0.00,,---,0.00,VWS V14.00,2013-06-04 01:24:00,
2013-06-03 20:29:00,76.2,65.7,29.87,ENE,73,0.0,0.0,70,0.00,,---,0.00,VWS V14.00,2013-06-04 01:29:00,
2013-06-03 20:34:00,76.1,66.0,29.87,SE,146,0.0,5.0,71,0.00,,---,0.00,VWS V14.00,2013-06-04 01:34:00,
2013-06-03 20:40:00,75.8,65.3,29.87,SSE,158,0.0,0.0,70,0.00,,---,0.00,VWS V14.00,2013-06-04 01:40:00,
2013-06-03 20:45:00,75.5,65.0,29.86,SE,126,0.0,0.0,70,0.00,,---,0.00,VWS V14.00,2013-06-04 01:45:00,
2013-06-03 20:50:00,75.4,65.3,29.86,SE,124,0.0,0.0,71,0.00,,---,0.00,VWS V14.00,2013-06-04 01:50:00,
2013-06-03 20:55:00,75.3,65.3,29.86,ENE,63,0.0,0.0,71,0.00,,---,0.00,VWS V14.00,2013-06-04 01:55:00,
2013-06-03 21:00:00,75.2,64.8,29.86,East,84,0.0,0.0,70,0.00,,---,0.00,VWS V14.00,2013-06-04 02:00:00,
2013-06-03 21:05:00,75.0,65.0,29.86,SW,219,0.0,1.0,71,0.00,,---,0.00,VWS V14.00,2013-06-04 02:05:00,
2013-06-03 21:10:00,74.8,64.8,29.86,SE,128,0.0,0.0,71,0.00,,---,0.00,VWS V14.00,2013-06-04 02:10:00,
2013-06-03 21:15:00,74.7,64.7,29.87,ESE,113,0.0,0.0,71,0.00,,---,0.00,VWS V14.00,2013-06-04 02:15:00,
2013-06-03 21:20:00,74.5,64.5,29.87,East,98,4.0,6.0,71,0.00,,---,0.00,VWS V14.00,2013-06-04 02:20:00,
2013-06-03 21:25:00,74.4,64.4,29.87,South,185,0.0,0.0,71,0.00,,---,0.00,VWS V14.00,2013-06-04 02:25:00,
2013-06-03 21:30:00,74.4,64.4,29.88,SSE,155,0.0,0.0,71,0.00,,---,0.00,VWS V14.00,2013-06-04 02:30:00,
2013-06-03 21:35:00,74.4,64.4,29.88,SE,138,0.0,0.0,71,0.00,,---,0.00,VWS V14.00,2013-06-04 02:35:00,
2013-06-03 21:40:00,74.3,63.9,29.88,SSE,158,0.0,1.0,70,0.00,,---,0.00,VWS V14.00,2013-06-04 02:40:00,
2013-06-03 21:45:00,74.2,63.8,29.87,East,86,0.0,6.0,70,0.00,,---,0.00,VWS V14.00,2013-06-04 02:45:00,
2013-06-03 21:50:00,74.0,64.0,29.87,SE,127,3.0,3.0,71,0.00,,---,0.00,VWS V14.00,2013-06-04 02:50:00,
2013-06-03 21:55:00,73.9,63.5,29.87,SE,127,5.0,5.0,70,0.00,,---,0.00,VWS V14.00,2013-06-04 02:55:00,
2013-06-03 22:00:00,73.8,63.4,29.87,SE,139,0.0,1.0,70,0.00,,---,0.00,VWS V14.00,2013-06-04 03:00:00,
2013-06-03 22:05:00,73.8,63.4,29.87,SE,141,0.0,4.0,70,0.00,,---,0.00,VWS V14.00,2013-06-04 03:05:00,
2013-06-03 22:10:00,73.7,63.3,29.87,SSE,160,0.0,0.0,70,0.00,,---,0.00,VWS V14.00,2013-06-04 03:10:00,
2013-06-03 22:15:00,73.7,63.3,29.89,SSE,156,0.0,2.0,70,0.00,,---,0.00,VWS V14.00,2013-06-04 03:15:00,
2013-06-03 22:20:00,73.7,63.3,29.89,SE,131,0.0,0.0,70,0.00,,---,0.00,VWS V14.00,2013-06-04 03:20:00,
2013-06-03 22:25:00,73.7,63.3,29.89,SE,146,0.0,7.0,70,0.00,,---,0.00,VWS V14.00,2013-06-04 03:25:00,
2013-06-03 22:30:00,73.7,63.3,29.90,South,184,0.0,0.0,70,0.00,,---,0.00,VWS V14.00,2013-06-04 03:30:00,
2013-06-03 22:35:00,73.6,63.2,29.90,South,182,0.0,0.0,70,0.00,,---,0.00,VWS V14.00,2013-06-04 03:35:00,
2013-06-03 22:40:00,73.5,63.1,29.90,ESE,120,0.0,5.0,70,0.00,,---,0.00,VWS V14.00,2013-06-04 03:40:00,
2013-06-03 22:45:00,73.4,63.0,29.90,SE,134,0.0,0.0,70,0.00,,---,0.00,VWS V14.00,2013-06-04 03:45:00,
2013-06-03 22:50:00,73.3,62.9,29.90,SE,135,0.0,0.0,70,0.00,,---,0.00,VWS V14.00,2013-06-04 03:50:00,
2013-06-03 22:55:00,73.2,62.8,29.90,SSE,148,4.0,6.0,70,0.00,,---,0.00,VWS V14.00,2013-06-04 03:55:00,
2013-06-03 23:00:00,73.3,62.5,29.90,ESE,110,0.0,3.0,69,0.00,,---,0.00,VWS V14.00,2013-06-04 04:00:00,
2013-06-03 23:01:00,73.3,62.5,29.90,ESE,110,0.0,0.0,69,0.00,,---,0.00,VWS V14.00,2013-06-04 04:01:00,
2013-06-03 23:02:00,73.3,62.5,29.90,ESE,110,0.0,0.0,69,0.00,,---,0.00,VWS V14.00,2013-06-04 04:02:00,
2013-06-03 23:05:00,73.4,62.6,29.90,ESE,110,0.0,0.0,69,0.00,,---,0.00,VWS V14.00,2013-06-04 04:05:00,
2013-06-03 23:09:00,73.3,62.5,29.90,ESE,110,0.0,4.0,69,0.00,,---,0.00,VWS V14.00,2013-06-04 04:09:00,
2013-06-03 23:12:00,73.3,62.9,29.90,SE,133,1.0,1.0,70,0.00,,---,0.00,VWS V14.00,2013-06-04 04:12:00,
2013-06-03 23:17:00,73.1,62.7,29.90,SE,131,0.0,1.0,70,0.00,,---,0.00,VWS V14.00,2013-06-04 04:17:00,
2013-06-03 23:22:00,72.9,62.5,29.90,ENE,71,0.0,0.0,70,0.00,,---,0.00,VWS V14.00,2013-06-04 04:22:00,
2013-06-03 23:27:00,72.7,62.8,29.90,SSE,154,0.0,0.0,71,0.00,,---,0.00,VWS V14.00,2013-06-04 04:27:00,
2013-06-03 23:33:00,72.6,62.7,29.90,SSE,153,0.0,0.0,71,0.00,,---,0.00,VWS V14.00,2013-06-04 04:33:00,
2013-06-03 23:38:00,72.4,62.9,29.90,SSE,149,0.0,0.0,72,0.00,,---,0.00,VWS V14.00,2013-06-04 04:38:00,
2013-06-03 23:44:00,72.3,62.8,29.90,East,100,0.0,5.0,72,0.00,,---,0.00,VWS V14.00,2013-06-04 04:44:00,
2013-06-03 23:49:00,72.1,62.6,29.90,East,101,0.0,2.0,72,0.00,,---,0.00,VWS V14.00,2013-06-04 04:49:00,
2013-06-03 23:55:00,72.0,62.9,29.90,East,94,0.0,0.0,73,0.00,,---,0.00,VWS V14.00,2013-06-04 04:55:00,